User: anonymous   Login
Location: Bruderhein
(53.8035°N, 112.9265°W)
Time: 04:55:31
(UTC+00:00)
Language:

METEOR M2 - Orbit

View from above orbital plane
View from above orbital plane
View from above satellite
View from above satellite

Ground track
Ground track

The orbit data is extracted from the following two-line orbital elements,

1 40069U 14037A   23081.86012557  .00000118  00000-0  73806-4 0  9990
2 40069  98.4266  91.8342 0004823 224.1971 135.8822 14.20757934451399
Epoch (UTC): 22 March 2023 20:38:34
Eccentricity: 0.0004823
inclination: 98.4266°
perigee height: 819 km
apogee height: 826 km
right ascension of ascending node: 91.8342°
argument of perigee: 224.1971°
revolutions per day: 14.20757934
mean anomaly at epoch: 135.8822°
orbit number at epoch: 45139

The dashed part of the orbit path shows where the satellite is in the earth's shadow,  

DLR